カタログに戻る

STARLINK-3601

運用中通信VLEO
NORAD 51804·PAYLOAD·🇺🇸 United States

打ち上げ Feb 25, 2022 から Vandenberg Space Force Base

Loading…

次のパス (今後24時間)

TLE

最新Source: CelesTrak SupGP

元期: Sep 14, 2026, 20:32 UTC

1 51804C 22017AN  26257.85604167  .00003583  00000+0  10584-3 0  2575
2 51804  53.1576 189.7564 0001370 101.0111  40.1813 15.34398752    18

AllMySatでSTARLINK-3601をリアルタイム追跡

Download on the App Store